Home   Weather   Punta Cana   Past weeks

Flag for Dominican Republic Past Weather in Punta Cana, Dominican Republic — Yesterday and Last 2 Weeks

Now
75 °F

Passing clouds.


Feels Like: 76 °F
Forecast: 69 / 80 °F
Wind: 20 mph from Northeast

Location: Punta Cana

Current Time: Jan 18, 2017 at 12:20:59 am

Latest Report: Jan 17, 2017 at 11:00 pm


Visibility: N/A

Pressure: 30.09 "Hg

Humidity: 78%

Dew Point: 68 °F

Location of Punta CanaLocation

Past Weather in Punta Cana — Graph

°F

Punta Cana Temperature Yesterday

Maximum temperature yesterday: 82 °F (at 12:00 pm)
Minimum temperature yesterday: 75 °F (at 5:00 am)
Average temperature yesterday: 78 °F

High & Low Weather Summary for the Past Weeks

 TemperatureHumidityPressure
High82 °F (Jan 3, 1:00 pm)100% (Jan 5, 12:00 am)30.12 "Hg (Jan 5, 12:00 am)
Low61 °F (Jan 15, 3:00 am)54% (Jan 12, 11:00 am)29.92 "Hg (Jan 4, 5:00 am)
Average76 °F79%30.04 "Hg
* Reported Jan 2 11:00 pm — Jan 17 11:00 pm, Punta Cana, Weather by CustomWeather, © 2017

Note: Actual official high and low records may vary slightly from our data, if they occured in-between our weather recording intervals... More about our weather records

Advertising

Punta Cana Weather History for the Previous 24 Hours

Scroll right to see more
 ConditionsComfort  
Time TempWeatherWind HumidityBarometerVisibility
11:00 pm
Tue, Jan 17
75 °FPassing clouds.20 mph78%30.09 "HgN/A
10:00 pm75 °FPassing clouds.22 mph78%30.12 "HgN/A
9:00 pm75 °FPassing clouds.22 mph78%30.09 "HgN/A
8:00 pm75 °FPassing clouds.20 mph78%30.09 "HgN/A
7:00 pm75 °FPassing clouds.23 mph78%30.07 "HgN/A
6:00 pm77 °FPassing clouds.18 mph74%30.07 "HgN/A
5:00 pm77 °FScattered clouds.16 mph79%30.04 "HgN/A
4:00 pm79 °FScattered clouds.18 mph74%30.04 "HgN/A
3:00 pm81 °FScattered clouds.17 mph70%30.07 "HgN/A
2:00 pm81 °FScattered clouds.14 mph66%30.07 "HgN/A
1:00 pm81 °FPassing clouds.18 mph62%30.09 "HgN/A
12:00 pm82 °FPassing clouds.20 mph70%30.12 "HgN/A
11:00 am81 °FPassing clouds.18 mph66%30.12 "HgN/A
10:00 am81 °FScattered clouds.18 mph62%30.12 "HgN/A
9:00 am77 °FPassing clouds.15 mph74%30.09 "HgN/A
8:00 am77 °FPassing clouds.16 mph69%30.09 "HgN/A
7:00 am75 °FPassing clouds.17 mph69%30.07 "HgN/A
6:00 am77 °FPassing clouds.12 mph69%30.07 "HgN/A
5:00 am75 °FPassing clouds.18 mph74%30.04 "HgN/A
3:00 am77 °FPassing clouds.17 mph74%30.07 "HgN/A
2:00 am77 °FLight rain. Passing clouds.17 mph74%30.07 "Hg5 mi
1:00 am77 °FPassing clouds.20 mph74%30.07 "HgN/A
12:00 am77 °FPassing clouds.13 mph69%30.09 "HgN/A
Weather by CustomWeather, © 2017

See weather overviewHow to use our weather pages